KD9IXX-13 Weather Reports


Display with metric or nautical units.
time (UTC)temp
F
wind
direction
speed
MPH
gust
MPH
rain 1hr
in
rain 24hr
in
rain mn
in
humidity
%
barometer
mb
20260503032501 44 250 2.0 3.0 0.00 0.00 0.00 70 1018.4
20260503032002 44 259 2.0 3.0 0.00 0.00 0.00 69 1018.3
20260503031502 44 264 2.0 2.0 0.00 0.00 0.00 69 1018.6
20260503031001 44 251 1.0 3.0 0.00 0.00 0.00 68 1018.6
20260503030503 45 234 2.0 3.0 0.00 0.00 0.00 68 1018.4
20260503030002 45 270 1.0 3.0 0.00 0.00 0.00 68 1018.8
20260503025502 45 252 1.0 3.0 0.00 0.00 0.00 67 1018.7
20260503025002 45 264 1.0 2.0 0.00 0.00 0.00 67 1018.6
20260503024502 45 222 2.0 3.0 0.00 0.00 0.00 67 1018.9
20260503024002 45 258 2.0 3.0 0.00 0.00 0.00 67 1018.5
20260503023502 45 242 2.0 3.0 0.00 0.00 0.00 67 1018.4
20260503023002 45 217 2.0 4.0 0.00 0.00 0.00 66 1018.6
20260503022502 45 240 3.0 3.0 0.00 0.00 0.00 66 1018.5
20260503022002 46 234 3.0 3.0 0.00 0.00 0.00 64 1018.5
20260503021502 46 259 2.0 3.0 0.00 0.00 0.00 64 1018.5
20260503021001 46 266 1.0 3.0 0.00 0.00 0.00 63 1018.6
20260503020502 46 246 1.0 3.0 0.00 0.00 0.00 63 1018.6
20260503020002 47 259 2.0 3.0 0.00 0.00 0.00 63 1018.5
20260503015502 47 271 1.0 2.0 0.00 0.00 0.00 62 1018.6
20260503015002 47 269 1.0 3.0 0.00 0.00 0.00 61 1018.4
20260503014502 47 273 1.0 2.0 0.00 0.00 0.00 59 1018.5
20260503014002 48 273 0.0 0.0 0.00 0.00 0.00 58 1018.2
20260503013501 48 273 1.0 2.0 0.00 0.00 0.00 57 1018.2
20260503013002 48 274 0.0 2.0 0.00 0.00 0.00 57 1018.2
20260503012502 48 276 1.0 2.0 0.00 0.00 0.00 57 1018.2
20260503012002 48 278 0.0 0.0 0.00 0.00 0.00 56 1018.1
20260503011502 48 278 0.0 0.0 0.00 0.00 0.00 56 1018.2
20260503011002 49 278 0.0 0.0 0.00 0.00 0.00 55 1018.2
20260503010502 49 278 0.0 0.0 0.00 0.00 0.00 53 1018.3
20260503010002 50 278 0.0 0.0 0.00 0.00 0.00 52 1018.1
20260503005501 50 276 0.0 2.0 0.00 0.00 0.00 51 1018.1
20260503005002 51 279 0.0 2.0 0.00 0.00 0.00 50 1018.0
20260503004502 51 277 0.0 2.0 0.00 0.00 0.00 50 1018.3
20260503004001 52 283 0.0 0.0 0.00 0.00 0.00 49 1018.3
20260503003502 53 248 2.0 3.0 0.00 0.00 0.00 47 1018.2
20260503003002 53 282 3.0 5.0 0.00 0.00 0.00 45 1018.1
20260503002502 53 277 2.0 6.0 0.00 0.00 0.00 45 1018.3
20260503002002 53 280 1.0 2.0 0.00 0.00 0.00 47 1018.2
20260503001502 53 286 3.0 4.0 0.00 0.00 0.00 45 1018.4
20260503001001 54 281 2.0 3.0 0.00 0.00 0.00 43 1018.2
20260503000502 55 317 3.0 7.0 0.00 0.00 0.00 42 1018.2
20260503000002 55 282 3.0 5.0 0.00 0.00 0.00 42 1018.2
20260502235502 56 340 4.0 7.0 0.00 0.00 0.00 41 1018.2
20260502235002 56 268 2.0 6.0 0.00 0.00 0.00 42 1018.1
20260502234502 56 311 4.0 5.0 0.00 0.00 0.00 41 1018.1
20260502234002 55 310 1.0 6.0 0.00 0.00 0.00 42 1018.3
20260502233501 55 260 3.0 6.0 0.00 0.00 0.00 43 1018.6
20260502233002 56 285 3.0 5.0 0.00 0.00 0.00 41 1018.6
20260502232502 54 295 3.0 6.0 0.00 0.00 0.00 43 1018.5
20260502232002 55 284 3.0 10.0 0.00 0.00 0.00 43 1018.2
20260502231502 55 265 2.0 3.0 0.00 0.00 0.00 45 1018.5
20260502231002 56 290 2.0 6.0 0.00 0.00 0.00 41 1018.4
20260502230502 56 234 5.0 6.0 0.00 0.00 0.00 41 1018.8
20260502230002 56 279 4.0 6.0 0.00 0.00 0.00 42 1018.5
20260502225502 56 260 3.0 6.0 0.00 0.00 0.00 44 1018.7
20260502225002 54 293 3.0 6.0 0.00 0.00 0.00 43 1018.8
20260502224502 54 287 3.0 5.0 0.00 0.00 0.00 43 1018.6
20260502224002 54 294 1.0 5.0 0.00 0.00 0.00 45 1018.6
20260502223502 56 281 3.0 6.0 0.00 0.00 0.00 42 1018.6
20260502223002 54 321 5.0 11.0 0.00 0.00 0.00 44 1018.7
20260502222502 54 336 3.0 6.0 0.00 0.00 0.00 44 1018.6
20260502222001 54 300 3.0 6.0 0.00 0.00 0.00 45 1018.7
20260502221502 56 276 3.0 9.0 0.00 0.00 0.00 43 1018.7
20260502221002 56 294 3.0 5.0 0.00 0.00 0.00 42 1018.5
20260502220502 56 324 5.0 9.0 0.00 0.00 0.00 42 1018.6
20260502220001 55 302 4.0 9.0 0.00 0.00 0.00 41 1018.5
20260502215502 55 285 4.0 10.0 0.00 0.00 0.00 42 1018.6
20260502215002 54 314 2.0 5.0 0.00 0.00 0.00 43 1018.7
20260502214501 56 301 2.0 6.0 0.00 0.00 0.00 41 1018.7
20260502214002 54 282 2.0 5.0 0.00 0.00 0.00 43 1018.9
20260502213502 55 273 5.0 10.0 0.00 0.00 0.00 42 1018.8
20260502213002 55 307 7.0 10.0 0.00 0.00 0.00 42 1018.5
20260502212502 54 338 6.0 11.0 0.00 0.00 0.00 41 1018.7
20260502212002 56 300 6.0 9.0 0.00 0.00 0.00 40 1018.8
20260502211501 55 313 6.0 7.0 0.00 0.00 0.00 43 1018.7
20260502211002 58 276 4.0 5.0 0.00 0.00 0.00 43 1019.0
20260502210502 57 303 5.0 9.0 0.00 0.00 0.00 42 1019.1
20260502210002 55 284 4.0 10.0 0.00 0.00 0.00 43 1019.0
20260502205501 55 260 4.0 9.0 0.00 0.00 0.00 42 1018.9
20260502205002 56 286 2.0 6.0 0.00 0.00 0.00 44 1018.8
20260502204502 56 269 3.0 6.0 0.00 0.00 0.00 41 1019.1
20260502204002 55 303 3.0 6.0 0.00 0.00 0.00 43 1019.1
20260502203502 54 305 4.0 9.0 0.00 0.00 0.00 43 1019.0
20260502203002 54 305 5.0 7.0 0.00 0.00 0.00 45 1019.2
20260502202502 55 325 6.0 7.0 0.00 0.00 0.00 41 1019.2
20260502202002 55 280 3.0 9.0 0.00 0.00 0.00 41 1019.4
20260502201501 55 290 3.0 7.0 0.00 0.00 0.00 43 1019.6
20260502201002 54 303 4.0 11.0 0.00 0.00 0.00 42 1019.4
20260502200502 54 296 2.0 5.0 0.00 0.00 0.00 43 1019.5
20260502200002 56 285 4.0 7.0 0.00 0.00 0.00 42 1019.7
20260502195501 55 339 5.0 7.0 0.00 0.00 0.00 40 1019.7
20260502195002 55 272 3.0 7.0 0.00 0.00 0.00 45 1019.8
20260502194502 54 245 3.0 9.0 0.00 0.00 0.00 42 1019.7
20260502194001 53 287 4.0 10.0 0.00 0.00 0.00 45 1019.9
20260502193502 54 273 6.0 11.0 0.00 0.00 0.00 45 1020.1
20260502193002 55 330 4.0 7.0 0.00 0.00 0.00 40 1020.1
20260502192502 54 341 5.0 9.0 0.00 0.00 0.00 43 1020.0
20260502192001 53 298 4.0 6.0 0.00 0.00 0.00 43 1020.0
20260502191502 53 263 5.0 11.0 0.00 0.00 0.00 44 1020.3
20260502191002 54 292 3.0 6.0 0.00 0.00 0.00 42 1020.2
20260502190502 53 307 3.0 9.0 0.00 0.00 0.00 43 1020.4
20260502190001 54 306 4.0 9.0 0.00 0.00 0.00 43 1020.2
20260502185502 54 81 2.0 6.0 0.00 0.00 0.00 41 1020.4
20260502185002 52 288 4.0 6.0 0.00 0.00 0.00 43 1020.6
20260502184502 52 288 3.0 6.0 0.00 0.00 0.00 45 1020.7
20260502184001 53 278 3.0 9.0 0.00 0.00 0.00 44 1020.6
20260502183502 54 330 3.0 6.0 0.00 0.00 0.00 42 1020.7
20260502183002 52 322 5.0 10.0 0.00 0.00 0.00 41 1020.7
20260502182502 52 312 6.0 7.0 0.00 0.00 0.00 45 1020.8
20260502182002 52 307 3.0 4.0 0.00 0.00 0.00 46 1020.7
20260502181502 51 283 9.0 13.0 0.00 0.00 0.00 44 1020.6
20260502181002 52 292 4.0 9.0 0.00 0.00 0.00 46 1020.7
20260502180502 53 268 7.0 9.0 0.00 0.00 0.00 40 1020.7
20260502170502 52 261 5.0 9.0 0.00 0.00 0.00 46 1021.3
20260502164001 51 2 6.0 11.0 0.00 0.00 0.00 47 1021.4
20260502163502 48 298 4.0 5.0 0.00 0.00 0.00 49 1021.5
20260502163002 49 359 4.0 6.0 0.00 0.00 0.00 49 1021.5
20260502162502 50 300 3.0 4.0 0.00 0.00 0.00 48 1021.9
20260502162001 53 246 8.0 10.0 0.00 0.00 0.00 45 1021.7
20260502161502 53 304 2.0 4.0 0.00 0.00 0.00 52 1021.8
20260502161002 51 307 2.0 5.0 0.00 0.00 0.00 45 1021.6
20260502160502 49 302 3.0 5.0 0.00 0.00 0.00 55 1021.6
20260502152002 48 289 3.0 7.0 0.00 0.00 0.00 49 1022.0
20260502151502 49 294 1.0 5.0 0.00 0.00 0.00 49 1021.8
20260502151002 48 226 3.0 4.0 0.00 0.00 0.00 49 1021.7
20260502150502 49 251 4.0 6.0 0.00 0.00 0.00 48 1021.9
20260502130502 43 299 2.0 3.0 0.00 0.00 0.00 70 1021.7
20260502123502 38 272 2.0 3.0 0.00 0.00 0.00 97 1021.5
20260502123002 37 291 0.0 0.0 0.00 0.00 0.00 99 1021.3
20260502122502 37 287 0.0 0.0 0.00 0.00 0.00 99 1021.5
20260502122001 36 289 0.0 0.0 0.00 0.00 0.00 99 1021.4
20260502121502 35 290 0.0 0.0 0.00 0.00 0.00 99 1021.4
20260502121002 35 285 0.0 0.0 0.00 0.00 0.00 99 1021.6
20260502120501 34 284 0.0 0.0 0.00 0.00 0.00 99 1021.2
20260502115502 32 289 0.0 0.0 0.00 0.00 0.00 99 1021.2
20260502115001 30 289 0.0 0.0 0.00 0.00 0.00 99 1021.2
20260502114502 29 289 0.0 0.0 0.00 0.00 0.00 99 1021.1
20260502114002 28 289 0.0 0.0 0.00 0.00 0.00 99 1021.0
20260502113501 28 289 0.0 0.0 0.00 0.00 0.00 99 1021.1
20260502113002 28 289 0.0 0.0 0.00 0.00 0.00 99 1020.9
20260502112502 28 289 0.0 0.0 0.00 0.00 0.00 99 1020.9
20260502112002 28 289 0.0 0.0 0.00 0.00 0.00 99 1020.8
20260502111502 28 289 0.0 0.0 0.00 0.00 0.00 99 1020.8
20260502111002 28 289 0.0 0.0 0.00 0.00 0.00 99 1020.8
20260502110502 28 289 0.0 0.0 0.00 0.00 0.00 99 1020.9
20260502110002 29 289 0.0 0.0 0.00 0.00 0.00 99 1020.8
20260502105501 28 289 0.0 0.0 0.00 0.00 0.00 99 1020.7
20260502105002 28 289 0.0 0.0 0.00 0.00 0.00 99 1020.7
20260502104502 28 289 0.0 0.0 0.00 0.00 0.00 99 1020.6
20260502104001 28 289 0.0 0.0 0.00 0.00 0.00 99 1020.7
20260502103502 28 289 0.0 0.0 0.00 0.00 0.00 99 1020.9
20260502103002 28 289 0.0 0.0 0.00 0.00 0.00 99 1020.7
20260502102501 27 289 0.0 0.0 0.00 0.00 0.00 99 1020.8
20260502102002 27 289 0.0 0.0 0.00 0.00 0.00 99 1020.7
20260502101502 27 289 0.0 0.0 0.00 0.00 0.00 99 1020.6
20260502101002 28 289 0.0 0.0 0.00 0.00 0.00 99 1020.5
20260502100502 27 289 0.0 0.0 0.00 0.00 0.00 99 1020.8
20260502091502 29 289 0.0 0.0 0.00 0.00 0.00 99 1020.6
20260502091002 29 289 0.0 0.0 0.00 0.00 0.00 99 1020.6
20260502090502 28 289 0.0 0.0 0.00 0.00 0.00 99 1020.5
20260502071501 32 287 0.0 0.0 0.00 0.00 0.00 95 1020.8
20260502071002 32 287 0.0 0.0 0.00 0.00 0.00 95 1020.5
20260502070502 32 287 0.0 0.0 0.00 0.00 0.00 95 1020.8
20260502070001 32 287 0.0 0.0 0.00 0.00 0.00 95 1020.7
20260502065502 32 287 0.0 0.0 0.00 0.00 0.00 95 1021.0
20260502065002 32 287 0.0 0.0 0.00 0.00 0.00 94 1020.8
20260502064502 33 287 0.0 0.0 0.00 0.00 0.00 94 1021.0
20260502064002 33 287 0.0 0.0 0.00 0.00 0.00 94 1021.1
20260502063502 32 287 0.0 0.0 0.00 0.00 0.00 94 1020.9
20260502063002 33 287 0.0 0.0 0.00 0.00 0.00 93 1021.0
20260502062502 33 287 0.0 0.0 0.00 0.00 0.00 93 1020.8
20260502062002 33 287 0.0 0.0 0.00 0.00 0.00 93 1021.0
20260502061501 33 287 0.0 0.0 0.00 0.00 0.00 92 1021.1
20260502061002 33 287 0.0 0.0 0.00 0.00 0.00 91 1020.8
20260502060502 33 286 0.0 0.0 0.00 0.00 0.00 90 1021.3
20260502060001 33 286 0.0 0.0 0.00 0.00 0.00 89 1021.1
20260502055503 34 286 0.0 0.0 0.00 0.00 0.00 89 1021.3
20260502055001 34 286 0.0 0.0 0.00 0.00 0.00 88 1021.2
20260502054502 34 286 0.0 0.0 0.00 0.00 0.00 87 1021.3
20260502054002 35 286 0.0 0.0 0.00 0.00 0.00 86 1021.3
20260502053502 36 286 0.0 0.0 0.00 0.00 0.00 85 1021.3
20260502053002 36 285 0.0 0.0 0.00 0.00 0.00 84 1021.3
20260502052502 37 286 0.0 0.0 0.00 0.00 0.00 83 1021.2
20260502051501 37 293 0.0 0.0 0.00 0.00 0.00 82 1021.4
20260502051002 37 295 1.0 2.0 0.00 0.00 0.00 83 1021.2
20260502050502 37 294 0.0 0.0 0.00 0.00 0.00 82 1021.4
20260502050002 37 294 0.0 0.0 0.00 0.00 0.01 82 1021.2
20260502045502 38 295 0.0 0.0 0.00 0.00 0.01 81 1021.3
20260502045002 38 305 1.0 2.0 0.00 0.00 0.01 80 1021.2
20260502044502 38 325 1.0 2.0 0.00 0.00 0.01 80 1021.3
20260502044003 38 296 0.0 2.0 0.00 0.00 0.01 80 1021.3
20260502043502 38 296 0.0 3.0 0.00 0.00 0.01 80 1021.1
20260502043002 38 316 0.0 2.0 0.00 0.00 0.01 80 1021.3
20260502042502 38 318 1.0 2.0 0.00 0.00 0.01 80 1020.9
20260502042002 38 286 1.0 2.0 0.00 0.00 0.01 79 1021.3
20260502041502 38 314 1.0 3.0 0.00 0.00 0.01 78 1021.1
20260502041002 38 314 2.0 4.0 0.00 0.00 0.01 78 1021.1
20260502040502 38 325 2.0 3.0 0.00 0.00 0.01 78 1021.1
20260502040002 38 316 1.0 2.0 0.00 0.00 0.01 79 1021.3
20260502035502 38 304 1.0 2.0 0.00 0.00 0.01 79 1021.2
20260502035002 38 344 2.0 3.0 0.00 0.00 0.01 78 1021.3
20260502034502 38 300 1.0 2.0 0.00 0.00 0.01 79 1021.1
20260502034001 38 307 1.0 2.0 0.00 0.00 0.01 78 1021.1
20260502033502 38 337 2.0 3.0 0.00 0.00 0.01 78 1021.0
20260502033002 38 302 0.0 2.0 0.00 0.00 0.01 79 1021.0